Terug naar catalogus

USA 521

ActiefMilitairLEO
NORAD 63596·PAYLOAD·🇺🇸 United States

Gelanceerd Apr 16, 2025 vanaf Vandenberg Space Force Base

Loading…

Volgende Passages (komende 24 uur)

TLE

VerouderdSource: Mike McCants

Epoch: Mar 19, 2026, 03:32 UTC

1 63596U 25077A   26078.14739726 0.00000000  00000-0  00000-0 0    05
2 63596  63.3971  83.6849 0018000 293.5214  66.4786 13.38600918    09

Volg USA 521 in realtime met AllMySat

Download on the App Store